Time,TemperatureF,DewpointF,PressureIn,WindDirection,WindDirectionDegrees,WindSpeedMPH,WindSpeedGustMPH,Humidity,HourlyPrecipIn,Conditions,Clouds,dailyrainin,SoftwareType,DateUTC
2013-05-20 00:01:00,78.1,75.3,29.04,SE,140,11.5,12.7,91,0.00,,FEW,0.00,WeatherDisplay:10.37,2013-05-20 05:01:00,
2013-05-20 00:06:00,78.1,75.3,29.04,South,184,5.4,12.7,91,0.00,,FEW,0.00,WeatherDisplay:10.37,2013-05-20 05:06:00,
2013-05-20 00:11:00,78.0,75.2,29.03,SSW,192,6.8,10.5,91,0.00,,FEW,0.00,WeatherDisplay:10.37,2013-05-20 05:11:00,
2013-05-20 00:16:00,77.9,75.1,29.03,SSE,152,7.4,16.1,91,0.00,,FEW,0.00,WeatherDisplay:10.37,2013-05-20 05:16:00,
2013-05-20 00:21:00,77.8,75.0,29.03,SE,145,7.2,8.1,91,0.00,,FEW,0.00,WeatherDisplay:10.37,2013-05-20 05:21:00,
2013-05-20 00:26:00,77.7,75.2,29.03,SSE,151,7.0,9.2,92,0.00,,FEW,0.00,WeatherDisplay:10.37,2013-05-20 05:26:00,
2013-05-20 00:31:00,77.6,75.1,29.03,SSE,150,4.5,11.5,92,0.00,,FEW,0.00,WeatherDisplay:10.37,2013-05-20 05:31:00,
2013-05-20 00:36:00,77.6,75.1,29.02,SE,145,5.5,8.1,92,0.00,,FEW,0.00,WeatherDisplay:10.37,2013-05-20 05:36:00,
2013-05-20 00:41:00,77.6,75.1,29.02,SE,141,6.4,9.2,92,0.00,,FEW,0.00,WeatherDisplay:10.37,2013-05-20 05:41:00,
2013-05-20 00:46:00,77.6,75.1,29.02,SSE,147,7.0,11.5,92,0.00,,FEW,0.00,WeatherDisplay:10.37,2013-05-20 05:46:00,
2013-05-20 00:51:00,77.7,75.2,29.02,SE,128,6.9,10.5,92,0.00,,FEW,0.00,WeatherDisplay:10.37,2013-05-20 05:51:00,
2013-05-20 00:56:00,77.8,75.3,29.02,SW,214,7.1,12.7,92,0.00,,FEW,0.00,WeatherDisplay:10.37,2013-05-20 05:56:00,
2013-05-20 01:01:00,77.8,75.3,29.02,SE,126,11.1,15.0,92,0.00,,FEW,0.00,WeatherDisplay:10.37,2013-05-20 06:01:00,
2013-05-20 01:06:00,77.8,75.3,29.02,SSE,158,7.9,11.5,92,0.00,,FEW,0.00,WeatherDisplay:10.37,2013-05-20 06:06:00,
2013-05-20 01:11:00,77.9,75.4,29.02,South,173,8.3,11.5,92,0.00,,FEW,0.00,WeatherDisplay:10.37,2013-05-20 06:11:00,
2013-05-20 01:16:00,77.9,75.4,29.02,SSE,151,5.9,12.7,92,0.00,,FEW,0.00,WeatherDisplay:10.37,2013-05-20 06:16:00,
2013-05-20 01:21:00,77.9,75.4,29.02,SSE,167,8.3,10.4,92,0.00,,FEW,0.00,WeatherDisplay:10.37,2013-05-20 06:21:00,
2013-05-20 01:26:00,77.9,75.4,29.01,ESE,114,8.2,13.8,92,0.00,,FEW,0.00,WeatherDisplay:10.37,2013-05-20 06:26:00,
2013-05-20 01:31:00,77.8,75.3,29.01,ESE,123,4.6,12.7,92,0.00,,FEW,0.00,WeatherDisplay:10.37,2013-05-20 06:31:00,
2013-05-20 01:36:00,77.8,75.3,29.01,SSE,161,7.1,23.0,92,0.00,,FEW,0.00,WeatherDisplay:10.37,2013-05-20 06:36:00,
2013-05-20 01:41:00,77.7,75.2,29.01,SE,144,10.0,12.7,92,0.00,,FEW,0.00,WeatherDisplay:10.37,2013-05-20 06:41:00,
2013-05-20 01:46:00,77.6,75.4,29.01,South,178,7.5,13.8,93,0.00,,FEW,0.00,WeatherDisplay:10.37,2013-05-20 06:46:00,
2013-05-20 01:51:00,77.5,75.3,29.01,SSE,150,8.9,12.7,93,0.00,,FEW,0.00,WeatherDisplay:10.37,2013-05-20 06:51:00,
2013-05-20 01:56:00,77.5,75.3,29.01,South,185,7.1,12.7,93,0.00,,FEW,0.00,WeatherDisplay:10.37,2013-05-20 06:56:00,
2013-05-20 02:01:00,77.4,75.2,29.01,ESE,102,7.7,12.7,93,0.00,,FEW,0.00,WeatherDisplay:10.37,2013-05-20 07:01:00,
2013-05-20 02:06:00,77.4,75.2,29.01,South,189,6.8,9.2,93,0.00,,FEW,0.00,WeatherDisplay:10.37,2013-05-20 07:06:00,
2013-05-20 02:11:00,77.4,75.2,29.01,SE,144,8.7,11.6,93,0.00,,FEW,0.00,WeatherDisplay:10.37,2013-05-20 07:11:00,
2013-05-20 02:16:00,77.4,75.2,29.00,SSE,164,10.4,15.0,93,0.00,,FEW,0.00,WeatherDisplay:10.37,2013-05-20 07:16:00,
2013-05-20 02:21:00,77.3,75.4,29.00,ESE,119,11.5,12.7,94,0.00,,FEW,0.00,WeatherDisplay:10.37,2013-05-20 07:21:00,
2013-05-20 02:26:00,77.3,75.4,29.00,South,178,7.0,10.4,94,0.00,,FEW,0.00,WeatherDisplay:10.37,2013-05-20 07:26:00,
2013-05-20 02:31:00,77.2,75.3,29.00,SE,132,12.7,15.0,94,0.00,,FEW,0.00,WeatherDisplay:10.37,2013-05-20 07:31:00,
2013-05-20 02:36:00,77.2,75.3,29.00,SSE,147,9.9,11.5,94,0.00,,FEW,0.00,WeatherDisplay:10.37,2013-05-20 07:36:00,
2013-05-20 02:41:00,77.1,75.2,29.00,ESE,105,12.1,15.0,94,0.00,,FEW,0.00,WeatherDisplay:10.37,2013-05-20 07:41:00,
2013-05-20 02:46:00,77.1,75.2,29.00,SSE,164,14.3,15.0,94,0.00,,FEW,0.00,WeatherDisplay:10.37,2013-05-20 07:46:00,
2013-05-20 02:51:00,77.0,75.5,29.00,SSE,152,11.5,15.0,95,0.00,,FEW,0.00,WeatherDisplay:10.37,2013-05-20 07:51:00,
2013-05-20 02:56:00,77.1,75.6,28.99,SE,135,7.4,17.3,95,0.00,,FEW,0.00,WeatherDisplay:10.37,2013-05-20 07:56:00,
2013-05-20 03:01:00,77.0,75.5,28.99,SE,124,9.4,12.6,95,0.00,,FEW,0.00,WeatherDisplay:10.37,2013-05-20 08:01:00,
2013-05-20 03:06:00,77.0,75.5,28.99,SSE,166,7.0,12.7,95,0.00,,FEW,0.00,WeatherDisplay:10.37,2013-05-20 08:06:00,
2013-05-20 03:11:00,77.0,75.5,29.00,East,98,8.5,11.5,95,0.00,,FEW,0.00,WeatherDisplay:10.37,2013-05-20 08:11:00,
2013-05-20 03:16:00,77.0,75.5,29.00,SE,144,11.8,13.8,95,0.00,,FEW,0.00,WeatherDisplay:10.37,2013-05-20 08:16:00,
2013-05-20 03:21:00,76.9,75.4,29.00,SSE,158,9.5,15.0,95,0.00,,FEW,0.00,WeatherDisplay:10.37,2013-05-20 08:21:00,
2013-05-20 03:26:00,76.9,75.4,29.00,SE,132,7.9,10.4,95,0.00,,FEW,0.00,WeatherDisplay:10.37,2013-05-20 08:26:00,
2013-05-20 03:31:00,76.9,75.4,29.00,East,99,8.5,18.4,95,0.00,,FEW,0.00,WeatherDisplay:10.37,2013-05-20 08:31:00,
2013-05-20 03:36:00,76.8,75.3,29.00,SE,133,9.3,10.4,95,0.00,,FEW,0.00,WeatherDisplay:10.37,2013-05-20 08:36:00,
2013-05-20 03:41:00,76.9,75.4,29.00,WSW,239,9.9,12.6,95,0.00,,FEW,0.00,WeatherDisplay:10.37,2013-05-20 08:41:00,
2013-05-20 03:46:00,76.8,75.3,29.00,SSE,165,4.9,8.1,95,0.00,,FEW,0.00,WeatherDisplay:10.37,2013-05-20 08:46:00,
2013-05-20 03:51:00,76.8,75.3,29.00,SSE,166,9.2,9.2,95,0.00,,FEW,0.00,WeatherDisplay:10.37,2013-05-20 08:51:00,
2013-05-20 03:56:00,76.9,75.4,29.00,SSE,165,8.3,12.7,95,0.00,,FEW,0.00,WeatherDisplay:10.37,2013-05-20 08:56:00,
2013-05-20 04:01:00,76.9,75.4,29.00,SSE,154,8.9,11.5,95,0.00,,FEW,0.00,WeatherDisplay:10.37,2013-05-20 09:01:00,
2013-05-20 04:06:00,76.9,75.4,29.00,SE,135,6.6,15.8,95,0.00,,FEW,0.00,WeatherDisplay:10.37,2013-05-20 09:06:00,
2013-05-20 04:11:00,77.0,75.5,29.00,SE,128,6.6,12.7,95,0.00,,FEW,0.00,WeatherDisplay:10.37,2013-05-20 09:11:00,
2013-05-20 04:16:00,77.0,75.5,29.00,SE,137,6.3,9.2,95,0.00,,FEW,0.00,WeatherDisplay:10.37,2013-05-20 09:16:00,
2013-05-20 04:21:00,77.0,75.5,29.00,SE,130,7.4,9.2,95,0.00,,FEW,0.00,WeatherDisplay:10.37,2013-05-20 09:21:00,
2013-05-20 04:26:00,77.0,75.5,29.00,SSE,151,5.8,6.3,95,0.00,,FEW,0.00,WeatherDisplay:10.37,2013-05-20 09:26:00,
2013-05-20 04:31:00,77.1,75.6,29.00,South,189,3.9,8.1,95,0.00,,FEW,0.00,WeatherDisplay:10.37,2013-05-20 09:31:00,
2013-05-20 04:36:00,77.1,75.6,29.00,SSW,192,4.6,8.1,95,0.00,,FEW,0.00,WeatherDisplay:10.37,2013-05-20 09:36:00,
2013-05-20 04:41:00,77.1,75.6,29.00,SSE,152,3.1,8.1,95,0.00,,FEW,0.00,WeatherDisplay:10.37,2013-05-20 09:41:00,
2013-05-20 04:46:00,77.1,75.6,29.00,SSE,149,6.5,8.1,95,0.00,,FEW,0.00,WeatherDisplay:10.37,2013-05-20 09:46:00,
2013-05-20 04:51:00,77.1,75.6,29.00,SSE,163,7.2,8.1,95,0.00,,FEW,0.00,WeatherDisplay:10.37,2013-05-20 09:51:00,
2013-05-20 04:56:00,77.2,75.3,29.01,SSE,164,5.9,10.4,94,0.00,,FEW,0.00,WeatherDisplay:10.37,2013-05-20 09:56:00,
2013-05-20 05:01:00,77.2,75.3,29.01,SSE,164,4.4,6.9,94,0.00,,FEW,0.00,WeatherDisplay:10.37,2013-05-20 10:01:00,
2013-05-20 05:06:00,77.2,75.3,29.01,South,190,5.1,8.1,94,0.00,,FEW,0.00,WeatherDisplay:10.37,2013-05-20 10:06:00,
2013-05-20 05:11:00,77.2,75.3,29.01,SSE,152,7.6,12.7,94,0.00,,FEW,0.00,WeatherDisplay:10.37,2013-05-20 10:11:00,
2013-05-20 05:16:00,77.2,75.3,29.01,SE,139,4.0,12.7,94,0.00,,FEW,0.00,WeatherDisplay:10.37,2013-05-20 10:16:00,
2013-05-20 05:21:00,77.2,75.3,29.01,SSE,147,8.6,9.2,94,0.00,,FEW,0.00,WeatherDisplay:10.37,2013-05-20 10:21:00,
2013-05-20 05:26:00,77.2,75.3,29.01,SE,143,3.9,8.1,94,0.00,,FEW,0.00,WeatherDisplay:10.37,2013-05-20 10:26:00,
2013-05-20 05:31:00,77.2,75.3,29.01,SSE,159,5.2,9.4,94,0.00,,FEW,0.00,WeatherDisplay:10.37,2013-05-20 10:31:00,
2013-05-20 05:36:00,77.3,75.4,29.01,South,170,8.8,8.8,94,0.00,,FEW,0.00,WeatherDisplay:10.37,2013-05-20 10:36:00,
2013-05-20 05:41:00,77.3,75.4,29.01,South,176,6.3,11.6,94,0.00,,FEW,0.00,WeatherDisplay:10.37,2013-05-20 10:41:00,
2013-05-20 05:46:00,77.3,75.4,29.01,ESE,111,5.0,10.5,94,0.00,,FEW,0.00,WeatherDisplay:10.37,2013-05-20 10:46:00,
2013-05-20 05:51:00,77.3,75.4,29.02,South,173,7.2,9.4,94,0.00,,FEW,0.00,WeatherDisplay:10.37,2013-05-20 10:51:00,
2013-05-20 05:56:00,77.3,75.4,29.01,SE,140,5.9,11.5,94,0.00,,FEW,0.00,WeatherDisplay:10.37,2013-05-20 10:56:00,
2013-05-20 06:01:00,77.3,75.4,29.01,SSE,165,8.0,12.7,94,0.00,,FEW,0.00,WeatherDisplay:10.37,2013-05-20 11:01:00,
2013-05-20 06:06:00,77.3,75.4,29.01,ESE,111,7.7,10.4,94,0.00,,FEW,0.00,WeatherDisplay:10.37,2013-05-20 11:06:00,
2013-05-20 06:11:00,77.3,75.4,29.01,South,177,4.3,8.1,94,0.00,,FEW,0.00,WeatherDisplay:10.37,2013-05-20 11:11:00,
2013-05-20 06:16:00,77.3,75.4,29.02,SSE,152,9.7,11.5,94,0.00,,FEW,0.00,WeatherDisplay:10.37,2013-05-20 11:16:00,
2013-05-20 06:21:00,77.3,75.4,29.01,SE,143,7.1,10.4,94,0.00,,FEW,0.00,WeatherDisplay:10.37,2013-05-20 11:21:00,
2013-05-20 06:26:00,77.3,75.4,29.02,SSE,163,4.6,8.1,94,0.00,,FEW,0.00,WeatherDisplay:10.37,2013-05-20 11:26:00,
2013-05-20 06:31:00,77.3,75.4,29.02,East,101,5.3,8.1,94,0.00,,FEW,0.00,WeatherDisplay:10.37,2013-05-20 11:31:00,
2013-05-20 06:36:00,77.4,75.5,29.01,SE,146,6.8,10.4,94,0.00,,FEW,0.00,WeatherDisplay:10.37,2013-05-20 11:36:00,
2013-05-20 06:41:00,77.3,75.4,29.02,SE,136,7.4,10.4,94,0.00,,FEW,0.00,WeatherDisplay:10.37,2013-05-20 11:41:00,
2013-05-20 06:46:00,77.4,75.5,29.02,South,169,4.9,10.4,94,0.00,,FEW,0.00,WeatherDisplay:10.37,2013-05-20 11:46:00,
2013-05-20 06:51:00,77.4,75.5,29.02,ESE,115,5.7,8.1,94,0.00,,FEW,0.00,WeatherDisplay:10.37,2013-05-20 11:51:00,
2013-05-20 06:56:00,77.4,75.5,29.02,SSE,149,8.4,8.4,94,0.00,,FEW,0.00,WeatherDisplay:10.37,2013-05-20 11:56:00,
2013-05-20 07:01:00,77.5,75.6,29.02,ESE,118,4.9,8.1,94,0.00,,FEW,0.00,WeatherDisplay:10.37,2013-05-20 12:01:00,
2013-05-20 07:06:00,77.5,75.3,29.02,SSE,148,8.5,9.4,93,0.00,,FEW,0.00,WeatherDisplay:10.37,2013-05-20 12:06:00,
2013-05-20 07:11:00,77.6,75.4,29.03,SE,131,11.8,15.0,93,0.00,,FEW,0.00,WeatherDisplay:10.37,2013-05-20 12:11:00,
2013-05-20 07:16:00,77.7,75.5,29.03,SSE,163,7.1,9.2,93,0.00,,FEW,0.00,WeatherDisplay:10.37,2013-05-20 12:16:00,
2013-05-20 07:21:00,77.7,75.5,29.02,ESE,111,5.5,8.1,93,0.00,,FEW,0.00,WeatherDisplay:10.37,2013-05-20 12:21:00,
2013-05-20 07:26:00,77.7,75.5,29.03,SE,145,9.9,10.4,93,0.00,,FEW,0.00,WeatherDisplay:10.37,2013-05-20 12:26:00,
2013-05-20 07:31:00,77.7,75.5,29.03,ESE,116,8.7,11.5,93,0.00,,FEW,0.00,WeatherDisplay:10.37,2013-05-20 12:31:00,
2013-05-20 07:36:00,77.8,75.6,29.03,South,175,5.2,12.7,93,0.00,,FEW,0.00,WeatherDisplay:10.37,2013-05-20 12:36:00,
2013-05-20 07:41:00,77.8,75.6,29.03,SSE,163,6.8,10.4,93,0.00,,FEW,0.00,WeatherDisplay:10.37,2013-05-20 12:41:00,
2013-05-20 07:46:00,77.9,75.4,29.03,South,177,6.2,7.4,92,0.00,,FEW,0.00,WeatherDisplay:10.37,2013-05-20 12:46:00,
2013-05-20 07:51:00,77.9,75.4,29.03,South,187,10.5,13.8,92,0.00,,FEW,0.00,WeatherDisplay:10.37,2013-05-20 12:51:00,
2013-05-20 07:56:00,78.0,75.5,29.04,SSE,161,9.6,10.4,92,0.00,,FEW,0.00,WeatherDisplay:10.37,2013-05-20 12:56:00,
2013-05-20 08:01:00,78.0,75.5,29.04,SE,137,6.7,11.5,92,0.00,,FEW,0.00,WeatherDisplay:10.37,2013-05-20 13:01:00,
2013-05-20 08:06:00,78.0,75.5,29.04,SSE,163,4.6,5.8,92,0.00,,FEW,0.00,WeatherDisplay:10.37,2013-05-20 13:06:00,
2013-05-20 08:11:00,78.1,75.3,29.04,South,179,6.5,11.5,91,0.00,,FEW,0.00,WeatherDisplay:10.37,2013-05-20 13:11:00,
2013-05-20 08:16:00,78.2,75.4,29.04,SSE,152,8.8,15.0,91,0.00,,FEW,0.00,WeatherDisplay:10.37,2013-05-20 13:16:00,
2013-05-20 08:21:00,78.3,75.5,29.04,SSE,148,7.0,7.4,91,0.00,,FEW,0.00,WeatherDisplay:10.37,2013-05-20 13:21:00,
2013-05-20 08:26:00,78.4,75.6,29.04,SE,132,6.9,8.1,91,0.00,,FEW,0.00,WeatherDisplay:10.37,2013-05-20 13:26:00,
2013-05-20 08:31:00,78.5,75.7,29.04,South,171,5.2,11.5,91,0.00,,FEW,0.00,WeatherDisplay:10.37,2013-05-20 13:31:00,
2013-05-20 08:36:00,78.6,75.8,29.05,South,183,5.8,6.9,91,0.00,,FEW,0.00,WeatherDisplay:10.37,2013-05-20 13:36:00,
2013-05-20 08:41:00,78.6,75.8,29.04,SE,135,6.3,10.4,91,0.00,,FEW,0.00,WeatherDisplay:10.37,2013-05-20 13:41:00,
2013-05-20 08:46:00,78.6,75.8,29.05,East,86,10.2,15.0,91,0.00,,FEW,0.00,WeatherDisplay:10.37,2013-05-20 13:46:00,
2013-05-20 08:51:00,78.7,75.8,29.05,SE,138,5.7,11.6,91,0.00,,FEW,0.00,WeatherDisplay:10.37,2013-05-20 13:51:00,
2013-05-20 08:56:00,78.8,75.9,29.05,South,170,3.5,6.3,91,0.00,,FEW,0.00,WeatherDisplay:10.37,2013-05-20 13:56:00,
2013-05-20 09:01:00,79.0,76.1,29.05,ESE,106,6.1,6.9,91,0.00,,FEW,0.00,WeatherDisplay:10.37,2013-05-20 14:01:00,
2013-05-20 09:06:00,79.0,75.8,29.05,SSE,155,6.8,10.4,90,0.00,,FEW,0.00,WeatherDisplay:10.37,2013-05-20 14:06:00,
2013-05-20 09:11:00,79.3,76.1,29.05,South,190,4.6,6.9,90,0.00,,FEW,0.00,WeatherDisplay:10.37,2013-05-20 14:11:00,
2013-05-20 09:16:00,79.3,76.1,29.05,SE,128,6.3,11.6,90,0.00,,FEW,0.00,WeatherDisplay:10.37,2013-05-20 14:16:00,
2013-05-20 09:21:00,79.3,76.1,29.05,SSE,161,8.5,17.3,90,0.00,,FEW,0.00,WeatherDisplay:10.37,2013-05-20 14:21:00,
2013-05-20 09:26:00,79.3,76.1,29.06,SE,132,10.9,13.8,90,0.00,,FEW,0.00,WeatherDisplay:10.37,2013-05-20 14:26:00,
2013-05-20 09:31:00,79.3,75.8,29.06,SSE,151,10.0,16.1,89,0.00,,FEW,0.00,WeatherDisplay:10.37,2013-05-20 14:31:00,
2013-05-20 09:36:00,79.4,75.9,29.06,SE,138,7.1,9.2,89,0.00,,FEW,0.00,WeatherDisplay:10.37,2013-05-20 14:36:00,
2013-05-20 09:41:00,79.7,76.2,29.06,SE,144,9.4,10.4,89,0.00,,FEW,0.00,WeatherDisplay:10.37,2013-05-20 14:41:00,
2013-05-20 09:46:00,79.7,76.2,29.06,East,99,6.8,8.1,89,0.00,,FEW,0.00,WeatherDisplay:10.37,2013-05-20 14:46:00,
2013-05-20 09:51:00,79.6,76.1,29.06,SSE,147,7.0,9.4,89,0.00,,FEW,0.00,WeatherDisplay:10.37,2013-05-20 14:51:00,
2013-05-20 09:56:00,79.5,76.0,29.06,SSE,148,7.2,13.8,89,0.00,,FEW,0.00,WeatherDisplay:10.37,2013-05-20 14:56:00,
2013-05-20 10:01:00,79.6,76.1,29.06,East,88,10.9,13.7,89,0.00,,FEW,0.00,WeatherDisplay:10.37,2013-05-20 15:01:00,
2013-05-20 10:06:00,79.7,76.2,29.07,SE,129,7.0,8.4,89,0.00,,FEW,0.00,WeatherDisplay:10.37,2013-05-20 15:06:00,
2013-05-20 10:11:00,79.7,76.2,29.07,SSE,156,7.6,11.5,89,0.00,,FEW,0.00,WeatherDisplay:10.37,2013-05-20 15:11:00,
2013-05-20 10:16:00,80.0,76.5,29.06,SSE,156,7.6,10.5,89,0.00,,FEW,0.00,WeatherDisplay:10.37,2013-05-20 15:16:00,
2013-05-20 10:21:00,80.1,76.6,29.07,SSE,154,6.6,11.5,89,0.00,,FEW,0.00,WeatherDisplay:10.37,2013-05-20 15:21:00,
2013-05-20 10:26:00,80.3,76.8,29.06,SW,224,6.6,6.6,89,0.00,,FEW,0.00,WeatherDisplay:10.37,2013-05-20 15:26:00,
2013-05-20 10:31:00,80.3,76.4,29.06,SE,144,6.2,9.2,88,0.00,,FEW,0.00,WeatherDisplay:10.37,2013-05-20 15:31:00,
2013-05-20 10:36:00,80.2,76.3,29.06,ESE,123,11.3,11.3,88,0.00,,FEW,0.00,WeatherDisplay:10.37,2013-05-20 15:36:00,
2013-05-20 10:41:00,80.1,76.2,29.06,SSE,165,7.0,13.7,88,0.00,,FEW,0.00,WeatherDisplay:10.37,2013-05-20 15:41:00,
2013-05-20 10:46:00,80.4,76.5,29.06,ESE,103,4.0,9.2,88,0.00,,FEW,0.00,WeatherDisplay:10.37,2013-05-20 15:46:00,
2013-05-20 10:51:00,80.6,76.7,29.06,SSE,147,3.4,10.4,88,0.00,,FEW,0.00,WeatherDisplay:10.37,2013-05-20 15:51:00,
2013-05-20 10:56:00,80.4,76.5,29.06,South,178,8.7,10.4,88,0.00,,FEW,0.00,WeatherDisplay:10.37,2013-05-20 15:56:00,
2013-05-20 11:01:00,80.4,76.5,29.06,SSE,148,9.7,15.0,88,0.00,,FEW,0.00,WeatherDisplay:10.37,2013-05-20 16:01:00,
2013-05-20 11:06:00,80.0,76.1,29.06,ESE,123,9.7,10.5,88,0.00,,FEW,0.00,WeatherDisplay:10.37,2013-05-20 16:06:00,
2013-05-20 11:11:00,80.1,76.6,29.06,ESE,118,3.9,9.2,89,0.00,,FEW,0.00,WeatherDisplay:10.37,2013-05-20 16:11:00,
2013-05-20 11:16:00,80.2,76.3,29.06,SE,144,11.9,11.9,88,0.00,,FEW,0.00,WeatherDisplay:10.37,2013-05-20 16:16:00,
2013-05-20 11:21:00,80.2,76.3,29.06,SSE,147,6.9,9.2,88,0.00,,FEW,0.00,WeatherDisplay:10.37,2013-05-20 16:21:00,
2013-05-20 11:26:00,80.3,76.4,29.06,SE,138,9.0,12.7,88,0.00,,FEW,0.00,WeatherDisplay:10.37,2013-05-20 16:26:00,
2013-05-20 11:31:00,80.2,76.3,29.06,SSE,150,6.8,12.7,88,0.00,,FEW,0.00,WeatherDisplay:10.37,2013-05-20 16:31:00,
2013-05-20 11:36:00,80.3,76.4,29.06,SSE,159,7.6,11.5,88,0.00,,FEW,0.00,WeatherDisplay:10.37,2013-05-20 16:36:00,
2013-05-20 11:41:00,80.3,76.4,29.06,SE,133,4.9,10.4,88,0.00,,FEW,0.00,WeatherDisplay:10.37,2013-05-20 16:41:00,
2013-05-20 11:46:00,80.5,76.3,29.06,SE,132,9.5,15.0,87,0.00,,FEW,0.00,WeatherDisplay:10.37,2013-05-20 16:46:00,
2013-05-20 11:51:00,80.5,76.3,29.06,SE,128,8.6,13.8,87,0.00,,FEW,0.00,WeatherDisplay:10.37,2013-05-20 16:51:00,
2013-05-20 11:56:00,80.6,76.4,29.06,SE,142,9.8,15.0,87,0.00,,FEW,0.00,WeatherDisplay:10.37,2013-05-20 16:56:00,
2013-05-20 12:01:00,80.6,76.4,29.06,SE,132,4.3,8.4,87,0.00,,FEW,0.00,WeatherDisplay:10.37,2013-05-20 17:01:00,
2013-05-20 12:06:00,81.1,76.9,29.06,SE,132,6.4,12.7,87,0.00,,FEW,0.00,WeatherDisplay:10.37,2013-05-20 17:06:00,
2013-05-20 12:11:00,81.2,76.6,29.06,SSE,165,10.5,11.5,86,0.00,,FEW,0.00,WeatherDisplay:10.37,2013-05-20 17:11:00,
2013-05-20 12:16:00,81.2,77.0,29.06,SE,135,6.5,6.9,87,0.00,,FEW,0.00,WeatherDisplay:10.37,2013-05-20 17:16:00,
2013-05-20 12:21:00,81.4,76.8,29.06,SE,143,12.0,12.0,86,0.00,,FEW,0.00,WeatherDisplay:10.37,2013-05-20 17:21:00,
2013-05-20 12:26:00,81.8,77.2,29.06,ESE,115,9.0,15.0,86,0.00,,FEW,0.00,WeatherDisplay:10.37,2013-05-20 17:26:00,
2013-05-20 12:31:00,82.4,77.4,29.05,SE,144,9.2,10.4,85,0.00,,FEW,0.00,WeatherDisplay:10.37,2013-05-20 17:31:00,
2013-05-20 12:36:00,82.6,77.3,29.05,SSE,152,9.9,9.9,84,0.00,,FEW,0.00,WeatherDisplay:10.37,2013-05-20 17:36:00,
2013-05-20 12:41:00,82.8,77.5,29.05,SSE,152,6.9,10.4,84,0.00,,FEW,0.00,WeatherDisplay:10.37,2013-05-20 17:41:00,
2013-05-20 12:46:00,83.0,77.7,29.04,ESE,123,6.4,12.7,84,0.00,,FEW,0.00,WeatherDisplay:10.37,2013-05-20 17:46:00,
2013-05-20 12:51:00,82.8,77.1,29.04,SSE,154,10.5,18.4,83,0.00,,FEW,0.00,WeatherDisplay:10.37,2013-05-20 17:51:00,
2013-05-20 12:56:00,82.4,77.1,29.04,East,83,12.6,12.7,84,0.00,,FEW,0.00,WeatherDisplay:10.37,2013-05-20 17:56:00,
2013-05-20 13:01:00,82.6,77.6,29.03,SE,140,6.7,9.2,85,0.00,,FEW,0.00,WeatherDisplay:10.37,2013-05-20 18:01:00,
2013-05-20 13:06:00,83.1,77.8,29.03,SE,129,7.7,11.5,84,0.00,,FEW,0.00,WeatherDisplay:10.37,2013-05-20 18:06:00,
2013-05-20 13:11:00,83.2,77.5,29.03,SSE,148,10.5,12.7,83,0.00,,FEW,0.00,WeatherDisplay:10.37,2013-05-20 18:11:00,
2013-05-20 13:16:00,83.4,77.3,29.03,South,170,11.6,15.0,82,0.00,,FEW,0.00,WeatherDisplay:10.37,2013-05-20 18:16:00,
2013-05-20 13:21:00,82.9,77.6,29.03,SE,145,10.7,16.1,84,0.00,,FEW,0.00,WeatherDisplay:10.37,2013-05-20 18:21:00,
2013-05-20 13:26:00,83.4,77.3,29.03,SE,138,13.1,15.0,82,0.00,,FEW,0.00,WeatherDisplay:10.37,2013-05-20 18:26:00,
2013-05-20 13:31:00,83.1,77.0,29.03,East,98,11.1,12.7,82,0.00,,FEW,0.00,WeatherDisplay:10.37,2013-05-20 18:31:00,
2013-05-20 13:36:00,83.1,77.4,29.03,SSW,201,8.8,15.0,83,0.00,,FEW,0.00,WeatherDisplay:10.37,2013-05-20 18:36:00,
2013-05-20 13:41:00,83.0,77.7,29.02,SE,137,6.3,15.0,84,0.00,,FEW,0.00,WeatherDisplay:10.37,2013-05-20 18:41:00,
2013-05-20 13:46:00,83.2,77.5,29.02,SE,143,6.4,14.7,83,0.00,,FEW,0.00,WeatherDisplay:10.37,2013-05-20 18:46:00,
2013-05-20 13:51:00,83.4,77.7,29.02,SSE,156,11.7,12.6,83,0.00,,FEW,0.00,WeatherDisplay:10.37,2013-05-20 18:51:00,
2013-05-20 13:56:00,83.4,77.7,29.02,SSE,148,10.5,15.0,83,0.00,,FEW,0.00,WeatherDisplay:10.37,2013-05-20 18:56:00,
2013-05-20 14:01:00,83.4,77.7,29.02,SE,142,10.7,13.8,83,0.00,,FEW,0.00,WeatherDisplay:10.37,2013-05-20 19:01:00,
2013-05-20 14:06:00,83.1,77.4,29.02,ESE,106,13.5,13.5,83,0.00,,FEW,0.00,WeatherDisplay:10.37,2013-05-20 19:06:00,
2013-05-20 14:11:00,83.0,77.3,29.02,SE,145,11.1,16.1,83,0.00,,FEW,0.00,WeatherDisplay:10.37,2013-05-20 19:11:00,
2013-05-20 14:16:00,82.9,76.8,29.02,East,83,9.3,16.1,82,0.00,,FEW,0.00,WeatherDisplay:10.37,2013-05-20 19:16:00,
2013-05-20 14:21:00,82.9,76.8,29.02,SSW,200,11.8,15.0,82,0.00,,FEW,0.00,WeatherDisplay:10.37,2013-05-20 19:21:00,
2013-05-20 14:26:00,83.4,77.3,29.02,ESE,118,9.3,12.7,82,0.00,,FEW,0.00,WeatherDisplay:10.37,2013-05-20 19:26:00,
2013-05-20 14:31:00,83.5,77.4,29.02,SSE,154,8.0,11.5,82,0.00,,FEW,0.00,WeatherDisplay:10.37,2013-05-20 19:31:00,
2013-05-20 14:36:00,83.4,77.3,29.02,ESE,104,10.1,18.4,82,0.00,,FEW,0.00,WeatherDisplay:10.37,2013-05-20 19:36:00,
2013-05-20 14:41:00,83.3,77.6,29.02,South,172,3.7,16.1,83,0.00,,FEW,0.00,WeatherDisplay:10.37,2013-05-20 19:41:00,
2013-05-20 14:46:00,83.2,77.5,29.01,ESE,123,4.2,9.2,83,0.00,,FEW,0.00,WeatherDisplay:10.37,2013-05-20 19:46:00,
2013-05-20 14:51:00,83.3,77.2,29.01,SE,132,7.8,12.7,82,0.00,,FEW,0.00,WeatherDisplay:10.37,2013-05-20 19:51:00,
2013-05-20 14:56:00,83.3,77.2,29.02,SSE,147,8.4,15.0,82,0.00,,FEW,0.00,WeatherDisplay:10.37,2013-05-20 19:56:00,
2013-05-20 15:01:00,82.9,77.2,29.02,East,79,9.1,11.5,83,0.00,,FEW,0.00,WeatherDisplay:10.37,2013-05-20 20:01:00,
2013-05-20 15:06:00,82.8,77.5,29.02,SE,128,5.4,5.4,84,0.00,,FEW,0.00,WeatherDisplay:10.37,2013-05-20 20:06:00,
2013-05-20 15:11:00,83.1,77.4,29.01,SSE,156,8.7,11.6,83,0.00,,FEW,0.00,WeatherDisplay:10.37,2013-05-20 20:11:00,
2013-05-20 15:16:00,82.6,76.9,29.01,SE,129,11.9,17.3,83,0.00,,FEW,0.00,WeatherDisplay:10.37,2013-05-20 20:16:00,
2013-05-20 15:21:00,82.7,77.4,29.01,SSE,147,11.1,11.1,84,0.00,,FEW,0.00,WeatherDisplay:10.37,2013-05-20 20:21:00,
2013-05-20 15:26:00,83.0,77.3,29.01,SE,128,4.3,13.8,83,0.00,,FEW,0.00,WeatherDisplay:10.37,2013-05-20 20:26:00,
2013-05-20 15:31:00,83.3,77.2,29.01,SSE,147,9.5,12.7,82,0.00,,FEW,0.00,WeatherDisplay:10.37,2013-05-20 20:31:00,
2013-05-20 15:36:00,82.9,76.8,29.01,SE,133,10.8,23.0,82,0.00,,FEW,0.00,WeatherDisplay:10.37,2013-05-20 20:36:00,
2013-05-20 15:41:00,82.5,76.8,29.01,ENE,62,17.9,17.9,83,0.00,,FEW,0.00,WeatherDisplay:10.37,2013-05-20 20:41:00,
2013-05-20 15:46:00,82.9,77.2,29.01,SE,135,10.5,10.5,83,0.00,,FEW,0.00,WeatherDisplay:10.37,2013-05-20 20:46:00,
2013-05-20 15:51:00,82.7,77.0,29.00,SE,137,7.8,20.7,83,0.00,,FEW,0.00,WeatherDisplay:10.37,2013-05-20 20:51:00,
2013-05-20 15:56:00,82.7,77.0,29.00,SSE,164,11.3,12.7,83,0.00,,FEW,0.00,WeatherDisplay:10.37,2013-05-20 20:56:00,
2013-05-20 16:01:00,82.5,76.8,29.00,SSE,149,9.2,13.8,83,0.00,,FEW,0.00,WeatherDisplay:10.37,2013-05-20 21:01:00,
2013-05-20 16:06:00,82.4,76.7,29.00,ESE,108,11.6,16.1,83,0.00,,FEW,0.00,WeatherDisplay:10.37,2013-05-20 21:06:00,
2013-05-20 16:11:00,81.9,76.6,29.00,SE,141,12.3,13.8,84,0.00,,FEW,0.00,WeatherDisplay:10.37,2013-05-20 21:11:00,
2013-05-20 16:16:00,82.1,76.8,28.99,SE,125,9.5,12.7,84,0.00,,FEW,0.00,WeatherDisplay:10.37,2013-05-20 21:16:00,
2013-05-20 16:21:00,82.5,76.8,28.99,SE,132,10.2,12.7,83,0.00,,FEW,0.00,WeatherDisplay:10.37,2013-05-20 21:21:00,
2013-05-20 16:26:00,82.4,76.7,28.99,South,186,8.1,12.7,83,0.00,,FEW,0.00,WeatherDisplay:10.37,2013-05-20 21:26:00,
2013-05-20 16:31:00,82.2,76.5,28.99,SSE,156,10.4,13.8,83,0.00,,FEW,0.00,WeatherDisplay:10.37,2013-05-20 21:31:00,
2013-05-20 16:36:00,82.2,76.9,28.99,SSE,159,6.0,11.5,84,0.00,,FEW,0.00,WeatherDisplay:10.37,2013-05-20 21:36:00,
2013-05-20 16:41:00,82.7,77.0,28.99,ESE,112,9.6,16.1,83,0.00,,FEW,0.00,WeatherDisplay:10.37,2013-05-20 21:41:00,
2013-05-20 16:46:00,82.6,76.9,28.98,East,95,7.4,9.2,83,0.00,,FEW,0.00,WeatherDisplay:10.37,2013-05-20 21:46:00,
2013-05-20 16:51:00,82.1,76.4,28.98,ESE,111,6.3,18.4,83,0.00,,FEW,0.00,WeatherDisplay:10.37,2013-05-20 21:51:00,
2013-05-20 16:56:00,81.8,76.5,28.98,SE,130,8.8,15.0,84,0.00,,FEW,0.00,WeatherDisplay:10.37,2013-05-20 21:56:00,
2013-05-20 17:01:00,82.0,77.0,28.98,SE,133,6.9,12.7,85,0.00,,FEW,0.00,WeatherDisplay:10.37,2013-05-20 22:01:00,
2013-05-20 17:06:00,81.7,76.4,28.98,ESE,110,9.5,15.0,84,0.00,,FEW,0.00,WeatherDisplay:10.37,2013-05-20 22:06:00,
2013-05-20 17:11:00,81.3,76.4,28.98,SE,132,7.9,12.7,85,0.00,,FEW,0.00,WeatherDisplay:10.37,2013-05-20 22:11:00,
2013-05-20 17:16:00,81.1,76.2,28.98,SE,129,7.4,16.1,85,0.00,,FEW,0.00,WeatherDisplay:10.37,2013-05-20 22:16:00,
2013-05-20 17:21:00,81.2,76.3,28.98,SE,145,8.4,9.2,85,0.00,,FEW,0.00,WeatherDisplay:10.37,2013-05-20 22:21:00,
2013-05-20 17:26:00,80.9,76.3,28.98,SE,128,11.6,19.6,86,0.00,,FEW,0.00,WeatherDisplay:10.37,2013-05-20 22:26:00,
2013-05-20 17:31:00,80.8,76.2,28.97,ESE,116,7.8,13.8,86,0.00,,FEW,0.00,WeatherDisplay:10.37,2013-05-20 22:31:00,
2013-05-20 17:36:00,80.9,76.3,28.98,SE,128,5.6,12.6,86,0.00,,FEW,0.00,WeatherDisplay:10.37,2013-05-20 22:36:00,
2013-05-20 17:41:00,81.0,76.1,28.97,SE,146,10.4,13.8,85,0.00,,FEW,0.00,WeatherDisplay:10.37,2013-05-20 22:41:00,
2013-05-20 17:46:00,80.9,76.3,28.98,ESE,103,6.6,12.7,86,0.00,,FEW,0.00,WeatherDisplay:10.37,2013-05-20 22:46:00,
2013-05-20 17:51:00,80.8,76.2,28.97,SSE,156,8.7,12.7,86,0.00,,FEW,0.00,WeatherDisplay:10.37,2013-05-20 22:51:00,
2013-05-20 17:56:00,80.6,76.4,28.97,ESE,121,6.9,11.6,87,0.00,,FEW,0.00,WeatherDisplay:10.37,2013-05-20 22:56:00,
2013-05-20 18:01:00,80.6,76.4,28.97,ESE,106,6.9,13.8,87,0.00,,FEW,0.00,WeatherDisplay:10.37,2013-05-20 23:01:00,
2013-05-20 18:06:00,80.6,76.4,28.97,SE,135,11.4,17.3,87,0.00,,FEW,0.00,WeatherDisplay:10.37,2013-05-20 23:06:00,
2013-05-20 18:11:00,80.5,76.3,28.97,SE,128,6.6,15.0,87,0.00,,FEW,0.00,WeatherDisplay:10.37,2013-05-20 23:11:00,
2013-05-20 18:16:00,80.4,76.2,28.96,ESE,109,11.0,16.1,87,0.00,,FEW,0.00,WeatherDisplay:10.37,2013-05-20 23:16:00,
2013-05-20 18:21:00,80.3,76.4,28.96,SSE,151,8.4,13.7,88,0.00,,FEW,0.00,WeatherDisplay:10.37,2013-05-20 23:21:00,
2013-05-20 18:26:00,80.3,76.4,28.96,SE,137,11.9,13.8,88,0.00,,FEW,0.00,WeatherDisplay:10.37,2013-05-20 23:26:00,
2013-05-20 18:31:00,79.9,76.0,28.96,SSE,167,10.7,19.6,88,0.00,,FEW,0.00,WeatherDisplay:10.37,2013-05-20 23:31:00,
2013-05-20 18:36:00,80.0,76.5,28.96,ESE,121,10.8,11.5,89,0.00,,FEW,0.00,WeatherDisplay:10.37,2013-05-20 23:36:00,
2013-05-20 18:41:00,79.8,76.3,28.96,SE,144,8.9,16.1,89,0.00,,FEW,0.00,WeatherDisplay:10.37,2013-05-20 23:41:00,
2013-05-20 18:46:00,79.7,76.2,28.95,East,99,7.1,12.7,89,0.00,,FEW,0.00,WeatherDisplay:10.37,2013-05-20 23:46:00,
2013-05-20 18:51:00,79.6,76.1,28.95,ESE,104,6.6,11.5,89,0.00,,FEW,0.00,WeatherDisplay:10.37,2013-05-20 23:51:00,
2013-05-20 18:56:00,79.6,76.1,28.95,ESE,123,8.3,12.7,89,0.00,,FEW,0.00,WeatherDisplay:10.37,2013-05-20 23:56:00,
2013-05-20 19:01:00,79.6,76.1,28.95,ESE,123,8.6,12.7,89,0.00,,FEW,0.00,WeatherDisplay:10.37,2013-05-21 00:01:00,
2013-05-20 19:06:00,79.4,75.9,28.95,ESE,111,12.4,17.3,89,0.00,,FEW,0.00,WeatherDisplay:10.37,2013-05-21 00:06:00,
2013-05-20 19:11:00,79.4,76.2,28.95,ESE,123,11.0,13.8,90,0.00,,FEW,0.00,WeatherDisplay:10.37,2013-05-21 00:11:00,
2013-05-20 19:16:00,79.4,76.2,28.95,SSE,163,8.3,9.4,90,0.00,,FEW,0.00,WeatherDisplay:10.37,2013-05-21 00:16:00,
2013-05-20 19:21:00,79.3,76.1,28.95,NE,54,12.1,12.1,90,0.00,,FEW,0.00,WeatherDisplay:10.37,2013-05-21 00:21:00,
2013-05-20 19:26:00,79.1,75.9,28.95,SE,133,5.4,13.8,90,0.00,,FEW,0.00,WeatherDisplay:10.37,2013-05-21 00:26:00,
2013-05-20 19:31:00,79.1,75.9,28.95,SSE,164,8.1,10.4,90,0.00,,FEW,0.00,WeatherDisplay:10.37,2013-05-21 00:31:00,
2013-05-20 19:36:00,79.1,75.9,28.95,SE,140,6.7,8.1,90,0.00,,FEW,0.00,WeatherDisplay:10.37,2013-05-21 00:36:00,
2013-05-20 19:41:00,79.1,75.9,28.95,South,179,7.4,11.5,90,0.00,,FEW,0.00,WeatherDisplay:10.37,2013-05-21 00:41:00,
2013-05-20 19:46:00,79.0,75.8,28.95,SE,124,9.0,15.0,90,0.00,,FEW,0.00,WeatherDisplay:10.37,2013-05-21 00:46:00,
2013-05-20 19:51:00,78.8,75.9,28.96,SE,133,10.7,13.8,91,0.00,,FEW,0.00,WeatherDisplay:10.37,2013-05-21 00:51:00,
2013-05-20 19:56:00,78.8,75.9,28.96,SSE,147,9.6,11.5,91,0.00,,FEW,0.00,WeatherDisplay:10.37,2013-05-21 00:56:00,
2013-05-20 20:01:00,78.7,75.8,28.96,SE,142,8.8,13.8,91,0.00,,FEW,0.00,WeatherDisplay:10.37,2013-05-21 01:01:00,
2013-05-20 20:06:00,78.7,75.8,28.97,SE,145,6.3,9.2,91,0.00,,FEW,0.00,WeatherDisplay:10.37,2013-05-21 01:06:00,
2013-05-20 20:11:00,78.6,75.8,28.97,SSW,211,4.7,5.8,91,0.00,,FEW,0.00,WeatherDisplay:10.37,2013-05-21 01:11:00,
2013-05-20 20:16:00,78.6,76.1,28.97,ESE,118,8.9,10.4,92,0.00,,FEW,0.00,WeatherDisplay:10.37,2013-05-21 01:16:00,
2013-05-20 20:21:00,78.6,76.1,28.97,ESE,108,9.5,11.5,92,0.00,,FEW,0.00,WeatherDisplay:10.37,2013-05-21 01:21:00,
2013-05-20 20:26:00,78.6,76.1,28.96,SE,137,5.6,9.2,92,0.00,,FEW,0.00,WeatherDisplay:10.37,2013-05-21 01:26:00,
2013-05-20 20:31:00,78.6,76.1,28.97,SSE,147,8.4,8.4,92,0.00,,FEW,0.00,WeatherDisplay:10.37,2013-05-21 01:31:00,
2013-05-20 20:36:00,78.6,76.1,28.97,ESE,111,3.3,11.5,92,0.00,,FEW,0.00,WeatherDisplay:10.37,2013-05-21 01:36:00,
2013-05-20 20:41:00,78.6,76.1,28.97,SSE,148,5.5,8.1,92,0.00,,FEW,0.00,WeatherDisplay:10.37,2013-05-21 01:41:00,
2013-05-20 20:46:00,78.5,76.0,28.97,SE,135,12.1,16.1,92,0.00,,FEW,0.00,WeatherDisplay:10.37,2013-05-21 01:46:00,
2013-05-20 20:51:00,78.5,76.0,28.97,SE,141,9.7,13.8,92,0.00,,FEW,0.00,WeatherDisplay:10.37,2013-05-21 01:51:00,
2013-05-20 20:56:00,78.5,76.0,28.98,SE,139,8.4,11.5,92,0.00,,FEW,0.00,WeatherDisplay:10.37,2013-05-21 01:56:00,
2013-05-20 21:01:00,78.6,76.1,28.98,SE,135,7.0,12.6,92,0.00,,FEW,0.00,WeatherDisplay:10.37,2013-05-21 02:01:00,
2013-05-20 21:06:00,78.6,76.1,28.98,SE,130,13.5,17.3,92,0.00,,FEW,0.00,WeatherDisplay:10.37,2013-05-21 02:06:00,
2013-05-20 21:11:00,78.6,76.1,28.98,SSE,150,11.9,15.0,92,0.00,,FEW,0.00,WeatherDisplay:10.37,2013-05-21 02:11:00,
2013-05-20 21:16:00,78.7,76.2,28.99,SE,130,7.2,12.7,92,0.00,,FEW,0.00,WeatherDisplay:10.37,2013-05-21 02:16:00,
2013-05-20 21:21:00,78.6,76.1,28.99,SSW,209,7.2,13.8,92,0.00,,FEW,0.00,WeatherDisplay:10.37,2013-05-21 02:21:00,
2013-05-20 21:26:00,78.7,76.2,28.99,SSE,154,8.9,11.5,92,0.00,,FEW,0.00,WeatherDisplay:10.37,2013-05-21 02:26:00,
2013-05-20 21:31:00,78.6,76.1,28.99,SE,128,8.4,11.5,92,0.00,,FEW,0.00,WeatherDisplay:10.37,2013-05-21 02:31:00,
2013-05-20 21:36:00,78.6,76.1,28.99,ESE,120,10.0,17.3,92,0.00,,FEW,0.00,WeatherDisplay:10.37,2013-05-21 02:36:00,
2013-05-20 21:41:00,78.6,76.1,28.99,South,172,9.0,16.1,92,0.00,,FEW,0.00,WeatherDisplay:10.37,2013-05-21 02:41:00,
2013-05-20 21:46:00,78.7,76.2,28.99,ESE,120,7.0,8.4,92,0.00,,FEW,0.00,WeatherDisplay:10.37,2013-05-21 02:46:00,
2013-05-20 21:51:00,78.7,76.2,29.00,SE,140,7.7,8.1,92,0.00,,FEW,0.00,WeatherDisplay:10.37,2013-05-21 02:51:00,
2013-05-20 21:56:00,78.6,76.1,29.00,SSE,156,7.8,8.1,92,0.00,,FEW,0.00,WeatherDisplay:10.37,2013-05-21 02:56:00,
2013-05-20 22:01:00,78.6,76.1,29.00,SSE,167,6.2,12.7,92,0.00,,FEW,0.00,WeatherDisplay:10.37,2013-05-21 03:01:00,
2013-05-20 22:06:00,78.6,76.1,29.00,ESE,116,7.6,8.1,92,0.00,,FEW,0.00,WeatherDisplay:10.37,2013-05-21 03:06:00,
2013-05-20 22:11:00,78.6,76.1,29.01,SSE,147,8.2,13.8,92,0.00,,FEW,0.00,WeatherDisplay:10.37,2013-05-21 03:11:00,
2013-05-20 22:16:00,78.6,76.1,29.01,SSE,163,12.1,12.7,92,0.00,,FEW,0.00,WeatherDisplay:10.37,2013-05-21 03:16:00,
2013-05-20 22:21:00,78.6,76.1,29.01,SE,135,9.5,12.7,92,0.00,,FEW,0.00,WeatherDisplay:10.37,2013-05-21 03:21:00,
2013-05-20 22:26:00,78.6,76.1,29.00,SSE,161,12.3,12.3,92,0.00,,FEW,0.00,WeatherDisplay:10.37,2013-05-21 03:26:00,
2013-05-20 22:31:00,78.7,76.2,29.00,South,188,6.6,9.2,92,0.00,,FEW,0.00,WeatherDisplay:10.37,2013-05-21 03:31:00,
2013-05-20 22:36:00,78.6,76.1,29.01,South,173,8.8,15.0,92,0.00,,FEW,0.00,WeatherDisplay:10.37,2013-05-21 03:36:00,
2013-05-20 22:41:00,78.6,76.1,29.01,SE,143,6.6,10.4,92,0.00,,FEW,0.00,WeatherDisplay:10.37,2013-05-21 03:41:00,
2013-05-20 22:46:00,78.6,76.1,29.02,SE,142,6.2,10.4,92,0.00,,FEW,0.00,WeatherDisplay:10.37,2013-05-21 03:46:00,
2013-05-20 22:51:00,78.7,76.2,29.03,South,173,7.5,12.7,92,0.00,,FEW,0.00,WeatherDisplay:10.37,2013-05-21 03:51:00,
2013-05-20 22:56:00,78.7,76.2,29.03,SE,133,5.3,11.5,92,0.00,,FEW,0.00,WeatherDisplay:10.37,2013-05-21 03:56:00,
2013-05-20 23:01:00,78.7,76.2,29.03,SE,124,9.4,12.7,92,0.00,,FEW,0.00,WeatherDisplay:10.37,2013-05-21 04:01:00,
2013-05-20 23:02:00,78.7,76.2,29.02,SW,221,9.9,15.0,92,0.00,,FEW,0.00,WeatherDisplay:10.37,2013-05-21 04:02:00,
2013-05-20 23:07:00,78.7,76.2,29.02,SSE,152,6.6,9.2,92,0.00,,FEW,0.00,WeatherDisplay:10.37,2013-05-21 04:07:00,
2013-05-20 23:12:00,78.8,76.3,29.02,SSE,154,4.2,9.2,92,0.00,,FEW,0.00,WeatherDisplay:10.37,2013-05-21 04:12:00,
2013-05-20 23:17:00,78.8,76.3,29.02,SSE,155,4.8,6.9,92,0.00,,FEW,0.00,WeatherDisplay:10.37,2013-05-21 04:17:00,
2013-05-20 23:22:00,78.8,76.3,29.02,SE,124,6.4,11.5,92,0.00,,FEW,0.00,WeatherDisplay:10.37,2013-05-21 04:22:00,
2013-05-20 23:27:00,78.8,76.3,29.02,SE,133,4.1,9.4,92,0.00,,FEW,0.00,WeatherDisplay:10.37,2013-05-21 04:27:00,
2013-05-20 23:32:00,78.9,76.4,29.02,SE,144,7.3,8.1,92,0.00,,FEW,0.00,WeatherDisplay:10.37,2013-05-21 04:32:00,
2013-05-20 23:37:00,78.9,76.4,29.02,SE,144,4.3,6.9,92,0.00,,FEW,0.00,WeatherDisplay:10.37,2013-05-21 04:37:00,
2013-05-20 23:42:00,78.9,76.4,29.02,SSE,168,4.7,8.4,92,0.00,,FEW,0.00,WeatherDisplay:10.37,2013-05-21 04:42:00,
2013-05-20 23:47:00,78.9,76.4,29.02,WSW,255,4.9,6.9,92,0.00,,FEW,0.00,WeatherDisplay:10.37,2013-05-21 04:47:00,
2013-05-20 23:52:00,78.9,76.0,29.02,SE,138,7.1,10.4,91,0.00,,FEW,0.00,WeatherDisplay:10.37,2013-05-21 04:52:00,
2013-05-20 23:57:00,78.9,76.0,29.01,SSE,166,7.7,12.7,91,0.00,,FEW,0.00,WeatherDisplay:10.37,2013-05-21 04:57:00,